Larissa, Greece

1:10 PM EET on January 22, 2018 (GMT +0200)
Larisa Air Base

Weather History for LGLR - March, 2014

Change the Weather History Date:

Thursday, March 27, 2014

  Actual Average Record
Temperature  
Mean Temperature 56 °F -  
Max Temperature 64 °F 67 °F - ()
Min Temperature 47 °F 42 °F - ()
Degree Days  
Heating Degree Days 10    
Growing Degree Days 6 (Base 50)    
Moisture  
Dew Point 48 °F    
Average Humidity 76    
Maximum Humidity 100    
Minimum Humidity 47    
Precipitation  
Precipitation 0.01 in 0.04 in - ()
Sea Level Pressure  
Sea Level Pressure 29.89 in    
Wind  
Wind Speed 5 mph ()    
Max Wind Speed 22 mph    
Max Gust Speed 30 mph    
Visibility 6.1 miles    
Events Rain , Thunderstorm    
T = Trace of Precipitation, MM = Missing Value Source: Averaged Metar Reports

Daily Weather History Graph

Daily Weather History Graph

Search for Another Location

Airport or City:

Trip Planner

Search our weather history database for the weather conditions in past years. The results will help you decide how hot, cold, wet, or windy it might be!

Date:

Astronomy

Mar. 27, 2014 Rise Set
Actual Time 6:22 AM EET 6:49 PM EET
Civil Twilight 5:56 AM EET 7:16 PM EET
Nautical Twilight 5:24 AM EET 7:47 PM EET
Astronomical Twilight 4:51 AM EET 8:20 PM EET
Moon 4:00 AM EET (3/27) 3:15 PM EET (3/27)
Length of Visible Light 13h 20m
Length of Day
12h 26m
Waning Crescent, 15% of the Moon is Illuminated
Mar 27
Waning Crescent
Mar 30
New
Apr 7
First Quarter
Apr 15
Full
Apr 22
Last Quarter

Hourly Weather History & Observations

Time (EET) Temp. Dew Point Humidity Pressure Visibility Wind Dir Wind Speed Gust Speed Precip Events Conditions
12:50 AM 50.0 °F 44.6 °F 82% 29.98 in 6.2 mi Calm Calm - N/A   Mostly Cloudy
1:50 AM 50.0 °F 46.4 °F 87% 29.98 in 6.2 mi Calm Calm - N/A   Mostly Cloudy
2:00 AM 51 °F 46 °F 76% 29.99 in 6 mi Calm Calm - -   Scattered Clouds
2:50 AM 50.0 °F 46.4 °F 87% 29.98 in 6.2 mi Calm Calm - N/A   Mostly Cloudy
3:50 AM 48.2 °F 46.4 °F 93% 29.95 in 6.2 mi Calm Calm - N/A   Mostly Cloudy
4:50 AM 48.2 °F 46.4 °F 93% 29.95 in 6.2 mi Calm Calm - N/A   Mostly Cloudy
5:00 AM 49 °F 47 °F 89% 29.97 in 6 mi Calm Calm - -   Partly Cloudy
5:50 AM 50.0 °F 46.4 °F 87% 29.95 in 6.2 mi Calm Calm - N/A   Mostly Cloudy
6:50 AM 50.0 °F 46.4 °F 87% 29.95 in 6.2 mi East 6.9 mph - N/A   Mostly Cloudy
7:50 AM 50.0 °F 48.2 °F 94% 29.98 in 6.2 mi Calm Calm - N/A   Mostly Cloudy
8:00 AM 51 °F 48 °F 87% 29.98 in 6 mi Calm Calm - -   Scattered Clouds
8:50 AM 53.6 °F 50.0 °F 88% 29.98 in 6.2 mi Calm Calm - N/A   Mostly Cloudy
9:50 AM 55.4 °F 48.2 °F 77% 29.95 in 6.2 mi Calm Calm - N/A   Mostly Cloudy
10:50 AM 59.0 °F 48.2 °F 67% 29.95 in 6.2 mi ENE 5.8 mph - N/A   Mostly Cloudy
11:00 AM 59 °F 47 °F 56% 29.96 in 6 mi ENE 5.8 mph - -   Scattered Clouds
11:50 AM 64.4 °F 48.2 °F 56% 29.92 in 6.2 mi ENE 16.1 mph - N/A   Mostly Cloudy
12:50 PM 64.4 °F 50.0 °F 59% 29.92 in 6.2 mi ENE 17.3 mph - N/A   Mostly Cloudy
1:50 PM 64.4 °F 50.0 °F 59% 29.89 in 6.2 mi ENE 18.4 mph - N/A   Mostly Cloudy
2:00 PM 65 °F 50 °F 47% 29.90 in 6 mi ENE 18.4 mph - -   Partly Cloudy
2:50 PM 64.4 °F 50.0 °F 59% 29.83 in 6.2 mi ENE 21.9 mph - N/A   Mostly Cloudy
3:50 PM 60.8 °F 50.0 °F 68% 29.80 in 6.2 mi ENE 20.7 mph - N/A   Mostly Cloudy
4:50 PM 60.8 °F 46.4 °F 59% 29.77 in 6.2 mi ENE 18.4 mph 29.9 mph N/A   Mostly Cloudy
5:00 PM 60 °F 46 °F 49% 29.79 in 6 mi ENE 18.4 mph - -   Partly Cloudy
5:50 PM 59.0 °F 48.2 °F 67% 29.77 in 6.2 mi SSW 18.4 mph - N/A Thunderstorm Thunderstorm
6:50 PM 57.2 °F 48.2 °F 72% 29.74 in 6.2 mi East 13.8 mph - N/A   Light Drizzle
8:00 PM 57 °F 48 °F 64% 29.75 in 6 mi East 17.3 mph - - Rain , Thunderstorm Thunderstorms and Rain
10:50 PM 51.8 °F 50.0 °F 94% 29.77 in 6.2 mi Calm Calm - N/A   Partly Cloudy
11:00 PM 52 °F 50 °F 89% 29.80 in 6 mi Calm Calm - -   Partly Cloudy
11:50 PM 48.2 °F 48.2 °F 100% 29.77 in 6.2 mi Calm Calm - N/A   Partly Cloudy